EN

Hourly Weather Dzielin

Today, 31 October, Saturday

Time Temperature Precipitation Wind Pressure Humidity
00:00 +6°C° 0 mm 1 mps 749 mmHg 90%
01:00 +6°C° 0 mm 1 mps 750 mmHg 90%
02:00 +6°C° 0 mm 1 mps 750 mmHg 91%
03:00 +5°C° 0 mm 2 mps 750 mmHg 92%
04:00 +4°C° 0 mm 2 mps 751 mmHg 92%
05:00 +4°C° 0 mm 2 mps 751 mmHg 93%
06:00 +4°C° 0 mm 2 mps 751 mmHg 93%
07:00 +4°C° 0 mm 2 mps 752 mmHg 94%
08:00 +6°C° 0 mm 2 mps 753 mmHg 90%
09:00 +7°C° 0 mm 2 mps 753 mmHg 85%
10:00 +9°C° 0 mm 2 mps 753 mmHg 80%
11:00 +9°C° 0 mm 2 mps 753 mmHg 77%
12:00 +10°C° 0 mm 2 mps 753 mmHg 74%
13:00 +10°C° 0 mm 2 mps 754 mmHg 71%
14:00 +11°C° 0 mm 1 mps 754 mmHg 74%
15:00 +10°C° 0 mm 1 mps 754 mmHg 76%
16:00 +10°C° 0 mm 1 mps 754 mmHg 79%
17:00 +9°C° 0 mm 1 mps 754 mmHg 81%
18:00 +8°C° 0 mm 1 mps 754 mmHg 84%
19:00 +8°C° 0 mm 1 mps 754 mmHg 87%
20:00 +7°C° 0 mm 1 mps 754 mmHg 88%
21:00 +7°C° 0 mm 1 mps 754 mmHg 90%
22:00 +6°C° 0 mm 1 mps 754 mmHg 91%
23:00 +5°C° 0 mm 2 mps 754 mmHg 92%

Tomorrow, 1 November, Sunday

Time Temperature Precipitation Wind Pressure Humidity
00:00 +5°C° 0 mm 2 mps 754 mmHg 92%
01:00 +5°C° 0 mm 2 mps 754 mmHg 93%
02:00 +4°C° 0 mm 2 mps 754 mmHg 93%
03:00 +4°C° 0 mm 2 mps 753 mmHg 94%
04:00 +4°C° 0 mm 2 mps 753 mmHg 94%
05:00 +4°C° 0 mm 2 mps 753 mmHg 94%
06:00 +4°C° 0 mm 2 mps 752 mmHg 94%
07:00 +4°C° 0 mm 2 mps 752 mmHg 94%
08:00 +4°C° 0 mm 3 mps 752 mmHg 89%
09:00 +7°C° 0 mm 3 mps 752 mmHg 83%
10:00 +7°C° 0 mm 4 mps 752 mmHg 78%
11:00 +8°C° 0 mm 4 mps 751 mmHg 73%
12:00 +10°C° 0 mm 4 mps 751 mmHg 68%
13:00 +11°C° 0 mm 4 mps 750 mmHg 63%
14:00 +10°C° 0 mm 4 mps 749 mmHg 67%
15:00 +8°C° 0 mm 4 mps 749 mmHg 71%
16:00 +8°C° 0 mm 3 mps 748 mmHg 76%
17:00 +7°C° 0 mm 4 mps 748 mmHg 77%
18:00 +7°C° 0 mm 4 mps 748 mmHg 78%
19:00 +6°C° 0 mm 4 mps 747 mmHg 79%
20:00 +7°C° 0.1 mm 4 mps 747 mmHg 81%
21:00 +7°C° 0.1 mm 4 mps 747 mmHg 83%
22:00 +7°C° 0.1 mm 4 mps 746 mmHg 85%
23:00 +7°C° 0.3 mm 4 mps 746 mmHg 88%

Day after tomorrow, 2 November, Monday

Time Temperature Precipitation Wind Pressure Humidity
00:00 +7°C° 0.3 mm 4 mps 746 mmHg 91%
01:00 +8°C° 0.3 mm 3 mps 745 mmHg 94%
02:00 +8°C° 0.1 mm 4 mps 745 mmHg 95%
03:00 +8°C° 0.1 mm 4 mps 745 mmHg 96%
04:00 +8°C° 0.1 mm 4 mps 745 mmHg 96%
05:00 +9°C° 0.1 mm 3 mps 745 mmHg 97%
06:00 +10°C° 0.1 mm 3 mps 745 mmHg 97%
07:00 +10°C° 0.1 mm 3 mps 745 mmHg 98%
08:00 +10°C° 0 mm 3 mps 745 mmHg 97%
09:00 +11°C° 0 mm 3 mps 746 mmHg 96%
10:00 +11°C° 0 mm 3 mps 746 mmHg 96%
11:00 +12°C° 0 mm 3 mps 746 mmHg 90%
12:00 +13°C° 0 mm 3 mps 746 mmHg 85%
13:00 +14°C° 0 mm 3 mps 746 mmHg 80%
14:00 +13°C° 0 mm 3 mps 746 mmHg 82%
15:00 +12°C° 0 mm 3 mps 746 mmHg 85%
16:00 +12°C° 0 mm 2 mps 746 mmHg 88%
17:00 +12°C° 0 mm 2 mps 747 mmHg 90%
18:00 +12°C° 0 mm 2 mps 747 mmHg 92%
19:00 +12°C° 0 mm 2 mps 747 mmHg 94%
20:00 +12°C° 0 mm 2 mps 747 mmHg 95%
21:00 +13°C° 0 mm 2 mps 747 mmHg 96%
22:00 +13°C° 0 mm 2 mps 747 mmHg 97%
23:00 +12°C° 0 mm 3 mps 747 mmHg 97%

3 November, Tuesday

Time Temperature Precipitation Wind Pressure Humidity
00:00 +12°C° 0 mm 3 mps 747 mmHg 97%
01:00 +13°C° 0 mm 3 mps 747 mmHg 97%
02:00 +13°C° 0 mm 3 mps 747 mmHg 97%
03:00 +13°C° 0 mm 3 mps 747 mmHg 96%
04:00 +13°C° 0 mm 3 mps 747 mmHg 96%
05:00 +13°C° 0 mm 3 mps 748 mmHg 96%
06:00 +12°C° 0 mm 3 mps 748 mmHg 96%
07:00 +12°C° 0 mm 3 mps 748 mmHg 95%
08:00 +13°C° 0 mm 3 mps 749 mmHg 93%
09:00 +14°C° 0 mm 3 mps 749 mmHg 91%
10:00 +16°C° 0 mm 3 mps 750 mmHg 89%
11:00 +14°C° 0 mm 4 mps 750 mmHg 85%
12:00 +14°C° 0 mm 4 mps 750 mmHg 82%
13:00 +14°C° 0 mm 5 mps 751 mmHg 78%
14:00 +13°C° 0 mm 4 mps 751 mmHg 75%
15:00 +12°C° 0 mm 4 mps 752 mmHg 73%
16:00 +12°C° 0 mm 3 mps 752 mmHg 70%
17:00 +11°C° 0 mm 3 mps 753 mmHg 72%
18:00 +10°C° 0 mm 3 mps 753 mmHg 73%
19:00 +9°C° 0 mm 3 mps 754 mmHg 75%
20:00 +9°C° 0 mm 3 mps 754 mmHg 76%
21:00 +8°C° 0 mm 3 mps 754 mmHg 78%
22:00 +8°C° 0 mm 3 mps 755 mmHg 79%
23:00 +8°C° 0 mm 3 mps 755 mmHg 80%

4 November, Wednesday

Time Temperature Precipitation Wind Pressure Humidity
00:00 +7°C° 0 mm 2 mps 755 mmHg 81%
01:00 +7°C° 0 mm 2 mps 755 mmHg 82%
02:00 +7°C° 0 mm 2 mps 756 mmHg 82%
03:00 +7°C° 0 mm 2 mps 756 mmHg 82%
04:00 +7°C° 0 mm 2 mps 756 mmHg 82%
05:00 +7°C° 0 mm 2 mps 756 mmHg 82%
06:00 +6°C° 0 mm 2 mps 756 mmHg 82%
07:00 +6°C° 0 mm 2 mps 757 mmHg 82%
08:00 +7°C° 0 mm 3 mps 757 mmHg 77%
09:00 +8°C° 0 mm 3 mps 757 mmHg 72%
10:00 +8°C° 0 mm 4 mps 757 mmHg 67%
11:00 +10°C° 0 mm 4 mps 757 mmHg 65%
12:00 +10°C° 0 mm 4 mps 757 mmHg 62%
13:00 +11°C° 0 mm 4 mps 757 mmHg 60%
14:00 +10°C° 0 mm 3 mps 757 mmHg 64%
15:00 +9°C° 0 mm 3 mps 757 mmHg 68%
16:00 +8°C° 0 mm 2 mps 758 mmHg 73%
17:00 +7°C° 0 mm 2 mps 758 mmHg 75%
18:00 +7°C° 0 mm 2 mps 758 mmHg 77%
19:00 +6°C° 0 mm 2 mps 759 mmHg 79%
20:00 +6°C° 0 mm 2 mps 759 mmHg 81%
21:00 +5°C° 0 mm 2 mps 759 mmHg 82%
22:00 +5°C° 0 mm 2 mps 759 mmHg 84%
23:00 +5°C° 0 mm 2 mps 760 mmHg 84%

5 November, Thursday

Time Temperature Precipitation Wind Pressure Humidity
00:00 +4°C° 0 mm 2 mps 760 mmHg 85%
01:00 +4°C° 0 mm 2 mps 760 mmHg 85%
02:00 +4°C° 0 mm 2 mps 760 mmHg 86%
03:00 +4°C° 0 mm 2 mps 760 mmHg 87%
04:00 +3°C° 0 mm 2 mps 760 mmHg 87%
05:00 +3°C° 0 mm 2 mps 761 mmHg 88%
06:00 +3°C° 0 mm 2 mps 761 mmHg 89%
07:00 +3°C° 0 mm 2 mps 761 mmHg 90%
08:00 +4°C° 0 mm 2 mps 761 mmHg 86%
09:00 +5°C° 0 mm 2 mps 761 mmHg 81%
10:00 +7°C° 0 mm 3 mps 762 mmHg 77%
11:00 +7°C° 0 mm 3 mps 762 mmHg 74%
12:00 +8°C° 0 mm 3 mps 762 mmHg 71%
13:00 +9°C° 0 mm 3 mps 762 mmHg 68%
14:00 +8°C° 0 mm 3 mps 761 mmHg 72%
15:00 +7°C° 0 mm 3 mps 761 mmHg 76%
16:00 +6°C° 0 mm 2 mps 761 mmHg 81%
17:00 +5°C° 0 mm 3 mps 761 mmHg 84%
18:00 +4°C° 0 mm 3 mps 762 mmHg 88%
19:00 +4°C° 0 mm 3 mps 762 mmHg 92%
20:00 +3°C° 0 mm 3 mps 762 mmHg 93%
21:00 +3°C° 0 mm 3 mps 762 mmHg 94%
22:00 +3°C° 0 mm 3 mps 762 mmHg 95%
23:00 +3°C° 0 mm 3 mps 762 mmHg 94%
Show more